YUZGU 12 (RS6S) (53311 NORAD) Tracking and Keplerian Element Data

This shows tracking and keplerian element data for the satellite.

Feedback or suggestion? Click here.




ElementValue
Catalog53311
NameYUZGU 12 (RS6S)
Epoch Orbit1054
Epoch Day270.0699995
Epoch Year2022
RAAN190.5819
Inclination51.6394
Eccentricity0.0002509
Argument of Perigee192.4395
Mean Anonmoly167.6535
Mean Motion15.55725367
Decay Rate0.00076982
L11 53311U 98067TW 22270.06999950 .00076982 00000+0 10930-2 0 9999
L22 53311 51.6394 190.5819 0002509 192.4395 167.6535 15.55725367 10544

Live tracking and technical data element details for YUZGU 12 (RS6S) (NORAD 53311). YUZGU 12 (RS6S) can be tracked NOW for your location showing map with azimuth and elevation plus other details from your city location.

Track the satellite on the map from your city or location and see movement details for azimuth, elevation, latitude, longitude, range, height, and movement on the map or in text.







IsCatalogInMostPopularTable: catalog: 53311, numindb: 3
Update: records affected: 1



GetName: 53311 YUZGU 12 (RS6S)

Hit Count: updated at: Wed, 28 Sep 2022 21:46:26 GMT